Meteor 1-28 Rocket - Orbit

View from above orbital plane
View from above orbital plane
View from above satellite
View from above satellite

Ground track
Ground track

The orbit data is extracted from the following two-line orbital elements,

1 10114U 77057B   13168.51701602  .00000527  00000-0  34495-4 0  9953
2 10114 097.3219 039.8575 0015604 011.9882 348.1717 15.11695209962447
Epoch (UTC): 17 June 2013 12:24:30
Eccentricity: 0.0015604
inclination: 97.3219°
perigee height: 520 km
apogee height: 542 km
right ascension of ascending node: 39.8575°
argument of perigee: 11.9882°
revolutions per day: 15.11695209
mean anomaly at epoch: 348.1717°
orbit number at epoch: 96244

The dashed part of the orbit path shows where the satellite is in the earth's shadow,  

Developed and maintained by Chris Peat, Heavens-Above GmbH. Please read the updated FAQ before sending e-mail. Imprint. DLR